Change the Weather History Date:

Monday, November 5, 2012

  Actual Average Record
Temperature  
Mean Temperature 65 °F -  
Max Temperature 71 °F 60 °F 71 °F (2004)
Min Temperature 59 °F 43 °F 37 °F (2006)
Growing Degree Days 15 (Base 50)    
Moisture  
Dew Point 62 °F    
Average Humidity 87    
Maximum Humidity 94    
Minimum Humidity 77    
Precipitation  
Precipitation 0.00 in 0.17 in - ()
Sea Level Pressure  
Sea Level Pressure 29.75 in    
Wind  
Wind Speed 11 mph ()    
Max Wind Speed 18 mph    
Max Gust Speed 29 mph    
Visibility 5.5 miles    
Events Rain    
Averages and records for this station are not official NWS values.
T = Trace of Precipitation, MM = Missing Value Source: Averaged Metar Reports

Daily Weather History Graph

Daily Weather History Graph

Search for Another Location

Airport or City:

Trip Planner

Search our weather history database for the weather conditions in past years. The results will help you decide how hot, cold, wet, or windy it might be!

Date:

Astronomy

Nov. 05, 2012 Rise Set
Actual Time 6:47 AM CET 4:58 PM CET
Civil Twilight 6:17 AM CET 5:28 PM CET
Nautical Twilight 5:44 AM CET 6:01 PM CET
Astronomical Twilight 5:12 AM CET 6:33 PM CET
Moon 10:19 PM CET (11/5) 11:57 AM CET (11/5)
Length of Visible Light 11h 10m
Length of Day
10h 11m
Waning Gibbous, 65% of the Moon is Illuminated
Nov 5
Waning Gibbous
Nov 7
Last Quarter
Nov 13
New
Nov 20
First Quarter
Nov 28
Full

Hourly Weather History & Observations

Time (CET) Temp. Dew Point Humidity Pressure Visibility Wind Dir Wind Speed Gust Speed Precip Events Conditions
12:15 AM 66.2 °F 64.4 °F 94% 29.74 in 5.0 mi SSE 16.1 mph - N/A   Scattered Clouds
12:45 AM 66.2 °F 64.4 °F 94% 29.74 in 5.0 mi South 16.1 mph 28.8 mph N/A   Scattered Clouds
1:15 AM 68.0 °F 64.4 °F 88% 29.74 in 5.0 mi South 17.3 mph - N/A   Scattered Clouds
1:45 AM 68.0 °F 64.4 °F 88% 29.74 in 5.0 mi SSE 18.4 mph - N/A   Scattered Clouds
2:15 AM 68.0 °F 64.4 °F 88% 29.71 in 5.0 mi SSE 17.3 mph - N/A   Scattered Clouds
2:45 AM 68.0 °F 64.4 °F 88% 29.71 in 5.0 mi South 16.1 mph - N/A   Scattered Clouds
3:15 AM 68.0 °F 64.4 °F 88% 29.68 in 5.0 mi SSE 16.1 mph - N/A   Scattered Clouds
3:45 AM 68.0 °F 64.4 °F 88% 29.68 in 5.0 mi SSE 17.3 mph - N/A   Scattered Clouds
4:15 AM 68.0 °F 64.4 °F 88% 29.68 in 5.0 mi South 17.3 mph - N/A   Scattered Clouds
4:45 AM 68.0 °F 64.4 °F 88% 29.68 in 5.0 mi SSE 16.1 mph - N/A   Scattered Clouds
5:15 AM 68.0 °F 64.4 °F 88% 29.68 in 5.0 mi South 13.8 mph - N/A   Scattered Clouds
5:45 AM 68.0 °F 64.4 °F 88% 29.68 in 5.0 mi SSE 16.1 mph - N/A   Scattered Clouds
6:15 AM 68.0 °F 64.4 °F 88% 29.65 in 5.0 mi South 15.0 mph - N/A   Scattered Clouds
6:45 AM 68.0 °F 64.4 °F 88% 29.65 in 5.0 mi South 15.0 mph - N/A   Scattered Clouds
7:15 AM 68.0 °F 64.4 °F 88% 29.68 in 5.0 mi South 15.0 mph - N/A   Scattered Clouds
7:45 AM 68.0 °F 64.4 °F 88% 29.68 in 6.2 mi South 12.7 mph - N/A   Scattered Clouds
8:15 AM 68.0 °F 64.4 °F 88% 29.68 in 6.2 mi South 12.7 mph - N/A   Scattered Clouds
8:45 AM 69.8 °F 66.2 °F 88% 29.68 in 6.2 mi South 10.4 mph - N/A   Scattered Clouds
9:15 AM 69.8 °F 66.2 °F 88% 29.68 in 6.2 mi South 11.5 mph - N/A   Scattered Clouds
9:45 AM 69.8 °F 66.2 °F 88% 29.71 in 6.2 mi South 10.4 mph - N/A   Scattered Clouds
10:15 AM 71.6 °F 68.0 °F 88% 29.71 in 6.2 mi South 12.7 mph - N/A   Scattered Clouds
10:45 AM 71.6 °F 66.2 °F 83% 29.71 in 6.2 mi South 11.5 mph - N/A   Scattered Clouds
11:15 AM 69.8 °F 64.4 °F 83% 29.71 in 6.2 mi South 11.5 mph - N/A   Scattered Clouds
11:45 AM 69.8 °F 62.6 °F 78% 29.71 in 6.2 mi South 9.2 mph - N/A   Scattered Clouds
12:15 PM 68.0 °F 60.8 °F 78% 29.71 in 6.2 mi South 6.9 mph - N/A Rain Light Rain
12:45 PM 68.0 °F 60.8 °F 78% 29.71 in 6.2 mi SW 8.1 mph - N/A Rain Light Rain
1:15 PM 68.0 °F 64.4 °F 88% 29.71 in 6.2 mi SW 6.9 mph - N/A Rain Light Rain
1:45 PM 66.2 °F 62.6 °F 88% 29.74 in 2.5 mi SW 5.8 mph - N/A Rain Light Rain
2:15 PM 66.2 °F 62.6 °F 88% 29.71 in 4.3 mi SSW 6.9 mph - N/A Rain Light Rain
2:45 PM 66.2 °F 62.6 °F 88% 29.74 in 5.6 mi SW 6.9 mph - N/A   Scattered Clouds
3:15 PM 66.2 °F 60.8 °F 83% 29.74 in 6.2 mi West 8.1 mph 19.6 mph N/A   Scattered Clouds
3:45 PM 64.4 °F 59.0 °F 83% 29.77 in 6.2 mi WSW 8.1 mph - N/A   Scattered Clouds
4:15 PM 64.4 °F 59.0 °F 83% 29.77 in 6.2 mi West 8.1 mph 19.6 mph N/A   Scattered Clouds
4:45 PM 64.4 °F 57.2 °F 77% 29.77 in 6.2 mi SW 8.1 mph - N/A   Scattered Clouds
5:15 PM 62.6 °F 57.2 °F 82% 29.77 in 6.2 mi SW 5.8 mph - N/A   Scattered Clouds
5:45 PM 62.6 °F 57.2 °F 82% 29.80 in 6.2 mi South 5.8 mph - N/A   Scattered Clouds
6:15 PM 60.8 °F 57.2 °F 88% 29.83 in 5.0 mi South 5.8 mph - N/A   Scattered Clouds
6:45 PM 60.8 °F 57.2 °F 88% 29.83 in 4.3 mi SSW 6.9 mph - N/A   Scattered Clouds
7:15 PM 60.8 °F 57.2 °F 88% 29.83 in 4.3 mi South 4.6 mph - N/A   Scattered Clouds
7:45 PM 59.0 °F 57.2 °F 94% 29.83 in 4.3 mi SSE 6.9 mph - N/A   Scattered Clouds
8:15 PM 59.0 °F 57.2 °F 94% 29.83 in 4.3 mi South 5.8 mph - N/A   Scattered Clouds
8:45 PM 60.8 °F 57.2 °F 88% 29.86 in 5.6 mi South 5.8 mph - N/A   Scattered Clouds
9:15 PM 59.0 °F 55.4 °F 88% 29.86 in 6.2 mi South 6.9 mph - N/A   Scattered Clouds
9:45 PM 59.0 °F 55.4 °F 88% 29.89 in 6.2 mi SSE 5.8 mph - N/A   Partly Cloudy
10:15 PM 59.0 °F 55.4 °F 88% 29.89 in 6.2 mi South 5.8 mph - N/A   Partly Cloudy
10:45 PM 59.0 °F 55.4 °F 88% 29.89 in 6.2 mi South 5.8 mph - N/A   Scattered Clouds
11:15 PM 59.0 °F 55.4 °F 88% 29.89 in 6.2 mi South 5.8 mph - N/A   Scattered Clouds
11:45 PM 59.0 °F 55.4 °F 88% 29.89 in 6.2 mi South 4.6 mph - N/A   Scattered Clouds